Regional Weather Roundup
Issued by NWS

Home | Current Version | Previous Version | Graphics & Text | Print | Product List | Glossary On
Versions: 1 2 3 4 5 6 7 8 9 10 11 12 13 14 15 16 17 18 19 20 21 22 23 24 25 26 27 28 29 30 31 32 33 34 35 36 37 38 39 40 41 42 43 44 45 46 47 48 49 50
000
ASUS43 KFSD 250410
RWRSD

WEATHER ROUNDUP FOR SOUTH DAKOTA
NATIONAL WEATHER SERVICE SIOUX FALLS SD
1100 PM CDT MON JUL 24 2017

NOTE: "FAIR" INDICATES FEW OR NO CLOUDS BELOW 12,000 FEET WITH NO
SIGNIFICANT WEATHER AND/OR OBSTRUCTIONS TO VISIBILITY.


SDZ001>005-009-010-012>017-250500-
NORTHWEST AND NORTH CENTRAL SOUTH DAKOTA

CITY           SKY/WX    TMP DP  RH WIND       PRES   REMARKS
BUFFALO          N/A     81  57  43 N12       29.82R
FAITH            N/A     77  66  68 E12       29.83R
MOBRIDGE       CLOUDY    76  67  73 E15       29.80S
$$

SDZ012>016-024>037-041>051-057-063-072>074-250500-
SOUTHWEST AND SOUTH CENTRAL SOUTH DAKOTA

CITY           SKY/WX    TMP DP  RH WIND       PRES   REMARKS
RAPID CTY ARPT CLEAR     80  51  36 NE12      29.85R
PIERRE         CLEAR     77  61  57 E7        29.78R
CUSTER         CLEAR     74  43  32 E13       30.06R
ELLSWORTH AFB  CLEAR     79  52  38 E5        29.86R
PHILIP         CLEAR     76  60  57 E6        29.79R
PINE RIDGE     CLEAR     79  54  41 S7        29.89R
SPEARFISH      FAIR      72  54  53 SE7       29.91R
WINNER         FAIR      82  69  64 S29G38    29.82R
$$

SDZ004>011-016>023-039-040-250500-
NORTHEAST SOUTH DAKOTA

CITY           SKY/WX    TMP DP  RH WIND       PRES   REMARKS
ABERDEEN       PTCLDY    72  66  81 SE12      29.85F
WATERTOWN      CLOUDY    73  64  73 SE17G24   29.87F
BROOKINGS      CLOUDY    72  64  76 SE16      29.92S
SISSETON         N/A     70  66  87 SE8       29.90F
$$

SDZ017-020-022-023-036>040-048>070-250500-
SOUTHEAST SOUTH DAKOTA

CITY           SKY/WX    TMP DP  RH WIND       PRES   REMARKS
SIOUX FALLS    CLOUDY    75  66  73 SE16G23   29.92S
HURON          CLOUDY    75  66  73 SE14G21   29.83R
CHAMBERLAIN    CLOUDY    85  66  52 S30G40    29.78S
MITCHELL       MOCLDY    79  66  64 SE18G30   29.84R
YANKTON        CLOUDY    77  66  68 SE16      29.90R
$$

ABBREVIATIONS USED IN REMARKS
   TC - TEMPERATURE IN CELSIUS
  WCI - WIND CHILL INDEX
   HX - HEAT INDEX
  VSB - VISIBILITY





USA.gov is the U.S. government's official web portal to all federal, state and local government web resources and services.